Voltar ao catálogo

YAOGAN-30 U

AtivoMilitarVLEO
NORAD 46807·PAYLOAD·🇨🇳 China

Lançado Oct 26, 2020 de Xichang Satellite Launch Center

Loading…

Próximas Passagens (próximas 24 horas)

TLE

AtualizadoSource: Space-Track

Época: Sep 14, 2026, 11:08 UTC

1 46807U 20076A   26257.46416929  .00001948  00000-0  14395-3 0  9990
2 46807  34.9936 266.9214 0000679 255.8391 104.2242 15.03016267321558

Acompanhe YAOGAN-30 U em tempo real com AllMySat

Download on the App Store